• In Germany
  • List of Countries
  • For 7 days
  • Water Temperature
  • Satellite Maps
  • Weather Map
  • Weather Widgets
  • user-avatar
    Login

    Hourly Weather Cyklady

    Today, 22 February, Thursday

    Time Temperature Precipitation Wind Pressure Humidity
    00:00 +4°C° 0.3 mm 2 mps 675 mmHg 94%
    01:00 +4°C° 0 mm 2 mps 675 mmHg 94%
    02:00 +4°C° 0.1 mm 2 mps 675 mmHg 94%
    03:00 +4°C° 0.1 mm 2 mps 675 mmHg 93%
    04:00 +3°C° 0.1 mm 2 mps 675 mmHg 93%
    05:00 +4°C° 0 mm 2 mps 676 mmHg 92%
    06:00 +4°C° 0 mm 2 mps 676 mmHg 91%
    07:00 +4°C° 0 mm 2 mps 676 mmHg 91%
    08:00 +6°C° 0 mm 2 mps 676 mmHg 83%
    09:00 +8°C° 0 mm 2 mps 677 mmHg 76%
    10:00 +10°C° 0 mm 2 mps 678 mmHg 68%
    11:00 +10°C° 0 mm 2 mps 678 mmHg 66%
    12:00 +10°C° 0 mm 2 mps 678 mmHg 64%
    13:00 +12°C° 0 mm 2 mps 678 mmHg 62%
    14:00 +10°C° 0.1 mm 2 mps 678 mmHg 65%
    15:00 +10°C° 0.1 mm 2 mps 678 mmHg 69%
    16:00 +9°C° 0.1 mm 2 mps 677 mmHg 72%
    17:00 +8°C° 0 mm 2 mps 677 mmHg 78%
    18:00 +8°C° 0 mm 1 mps 677 mmHg 84%
    19:00 +6°C° 0 mm 1 mps 677 mmHg 90%
    20:00 +6°C° 0 mm 1 mps 677 mmHg 91%
    21:00 +6°C° 0 mm 1 mps 678 mmHg 91%
    22:00 +4°C° 0 mm 2 mps 678 mmHg 92%
    23:00 +4°C° 0 mm 2 mps 678 mmHg 92%

    Tomorrow, 23 February, Friday

    Time Temperature Precipitation Wind Pressure Humidity
    00:00 +4°C° 0 mm 2 mps 678 mmHg 92%
    01:00 +4°C° 0 mm 2 mps 678 mmHg 92%
    02:00 +4°C° 0 mm 2 mps 677 mmHg 92%
    03:00 +3°C° 0 mm 2 mps 677 mmHg 92%
    04:00 +2°C° 0 mm 3 mps 677 mmHg 93%
    05:00 +3°C° 0 mm 3 mps 677 mmHg 93%
    06:00 +3°C° 0 mm 3 mps 677 mmHg 93%
    07:00 +3°C° 0 mm 3 mps 677 mmHg 93%
    08:00 +5°C° 0 mm 3 mps 678 mmHg 85%
    09:00 +8°C° 0 mm 3 mps 678 mmHg 77%
    10:00 +10°C° 0 mm 3 mps 678 mmHg 70%
    11:00 +10°C° 0 mm 3 mps 678 mmHg 67%
    12:00 +11°C° 0 mm 3 mps 678 mmHg 65%
    13:00 +11°C° 0 mm 3 mps 678 mmHg 62%
    14:00 +11°C° 0 mm 3 mps 678 mmHg 65%
    15:00 +10°C° 0 mm 3 mps 678 mmHg 67%
    16:00 +10°C° 0 mm 3 mps 678 mmHg 70%
    17:00 +7°C° 0 mm 4 mps 677 mmHg 76%
    18:00 +6°C° 0 mm 4 mps 677 mmHg 82%
    19:00 +4°C° 0 mm 4 mps 677 mmHg 88%
    20:00 +4°C° 0 mm 4 mps 677 mmHg 88%
    21:00 +4°C° 0 mm 4 mps 677 mmHg 89%
    22:00 +4°C° 0 mm 4 mps 677 mmHg 89%
    23:00 +3°C° 0 mm 5 mps 677 mmHg 88%

    Day after tomorrow, 24 February, Saturday

    Time Temperature Precipitation Wind Pressure Humidity
    00:00 +3°C° 0 mm 5 mps 676 mmHg 88%
    01:00 +5°C° 0 mm 5 mps 676 mmHg 88%
    02:00 +5°C° 1.8 mm 5 mps 676 mmHg 89%
    03:00 +5°C° 1.8 mm 5 mps 675 mmHg 91%
    04:00 +5°C° 1.8 mm 4 mps 675 mmHg 93%
    05:00 +4°C° 3.9 mm 3 mps 675 mmHg 94%
    06:00 +4°C° 3.9 mm 3 mps 675 mmHg 96%
    07:00 +5°C° 3.9 mm 2 mps 675 mmHg 97%
    08:00 +5°C° 1 mm 2 mps 676 mmHg 94%
    09:00 +5°C° 1 mm 3 mps 676 mmHg 90%
    10:00 +5°C° 1 mm 3 mps 676 mmHg 86%
    11:00 +6°C° 0.5 mm 4 mps 676 mmHg 85%
    12:00 +6°C° 0.5 mm 4 mps 676 mmHg 84%
    13:00 +6°C° 0.5 mm 4 mps 676 mmHg 83%
    14:00 +6°C° 0.6 mm 4 mps 676 mmHg 85%
    15:00 +5°C° 0.6 mm 4 mps 676 mmHg 88%
    16:00 +5°C° 0.6 mm 4 mps 675 mmHg 90%
    17:00 +5°C° 0.6 mm 3 mps 676 mmHg 91%
    18:00 +4°C° 0.6 mm 3 mps 676 mmHg 93%
    19:00 +4°C° 0.6 mm 3 mps 676 mmHg 94%
    20:00 +4°C° 0.6 mm 3 mps 677 mmHg 95%
    21:00 +4°C° 0.6 mm 3 mps 677 mmHg 95%
    22:00 +3°C° 0.6 mm 3 mps 677 mmHg 95%
    23:00 +3°C° 0.5 mm 3 mps 678 mmHg 95%

    25 February, Sunday

    Time Temperature Precipitation Wind Pressure Humidity
    00:00 +3°C° 0.5 mm 3 mps 678 mmHg 95%
    01:00 +3°C° 0.5 mm 3 mps 678 mmHg 95%
    02:00 +4°C° 0.2 mm 2 mps 678 mmHg 96%
    03:00 +4°C° 0.2 mm 2 mps 677 mmHg 96%
    04:00 +3°C° 0.2 mm 2 mps 677 mmHg 96%
    05:00 +3°C° 0 mm 2 mps 677 mmHg 95%
    06:00 +5°C° 0 mm 1 mps 678 mmHg 95%
    07:00 +5°C° 0 mm 1 mps 678 mmHg 94%
    08:00 +6°C° 0 mm 1 mps 678 mmHg 88%
    09:00 +8°C° 0 mm 1 mps 679 mmHg 81%
    10:00 +9°C° 0 mm 1 mps 679 mmHg 74%
    11:00 +8°C° 0.1 mm 2 mps 679 mmHg 75%
    12:00 +8°C° 0.1 mm 2 mps 679 mmHg 76%
    13:00 +8°C° 0.1 mm 2 mps 679 mmHg 77%
    14:00 +8°C° 0.3 mm 2 mps 679 mmHg 80%
    15:00 +7°C° 0.3 mm 2 mps 679 mmHg 84%
    16:00 +7°C° 0.3 mm 2 mps 678 mmHg 87%
    17:00 +6°C° 0.3 mm 2 mps 678 mmHg 90%
    18:00 +6°C° 0.3 mm 2 mps 678 mmHg 92%
    19:00 +5°C° 0.3 mm 2 mps 678 mmHg 95%
    20:00 +5°C° 0.2 mm 2 mps 678 mmHg 95%
    21:00 +4°C° 0.2 mm 3 mps 678 mmHg 95%
    22:00 +3°C° 0.2 mm 3 mps 678 mmHg 95%
    23:00 +3°C° 0 mm 4 mps 678 mmHg 95%

    26 February, Monday

    Time Temperature Precipitation Wind Pressure Humidity
    00:00 +3°C° 0 mm 4 mps 677 mmHg 95%
    01:00 +3°C° 0 mm 4 mps 677 mmHg 95%
    02:00 +3°C° 0.2 mm 4 mps 676 mmHg 95%
    03:00 +2°C° 0.2 mm 5 mps 675 mmHg 94%
    04:00 +2°C° 0.2 mm 5 mps 675 mmHg 93%
    05:00 +2°C° 1.3 mm 5 mps 674 mmHg 93%
    06:00 +2°C° 1.3 mm 5 mps 674 mmHg 94%
    07:00 +2°C° 1.3 mm 6 mps 674 mmHg 94%
    08:00 +3°C° 3.9 mm 6 mps 674 mmHg 94%
    09:00 +3°C° 3.9 mm 6 mps 673 mmHg 94%
    10:00 +3°C° 3.9 mm 6 mps 673 mmHg 94%
    11:00 +4°C° 0.8 mm 6 mps 673 mmHg 90%
    12:00 +4°C° 0.8 mm 6 mps 673 mmHg 85%
    13:00 +5°C° 0.8 mm 6 mps 673 mmHg 81%
    14:00 +4°C° 0.6 mm 6 mps 673 mmHg 82%
    15:00 +5°C° 0.6 mm 5 mps 673 mmHg 83%
    16:00 +3°C° 0.6 mm 5 mps 673 mmHg 84%
    17:00 +4°C° 0.4 mm 4 mps 673 mmHg 87%
    18:00 +3°C° 0.4 mm 4 mps 674 mmHg 89%
    19:00 +2°C° 0.4 mm 3 mps 674 mmHg 92%
    20:00 +1°C° 0.4 mm 4 mps 674 mmHg 92%
    21:00 +1°C° 0.4 mm 4 mps 674 mmHg 92%
    22:00 +1°C° 0.4 mm 4 mps 674 mmHg 92%
    23:00 +2°C° 1 mm 5 mps 674 mmHg 92%

    27 February, Tuesday

    Time Temperature Precipitation Wind Pressure Humidity
    00:00 +2°C° 1 mm 5 mps 674 mmHg 93%
    01:00 +2°C° 1 mm 6 mps 674 mmHg 93%
    02:00 +2°C° 0.6 mm 6 mps 674 mmHg 93%
    03:00 +2°C° 0.6 mm 6 mps 674 mmHg 92%
    04:00 +2°C° 0.6 mm 6 mps 674 mmHg 91%
    05:00 +2°C° 0.2 mm 6 mps 674 mmHg 90%
    06:00 +2°C° 0.2 mm 6 mps 675 mmHg 89%
    07:00 +2°C° 0.2 mm 6 mps 675 mmHg 88%
    08:00 +3°C° 0.1 mm 6 mps 676 mmHg 84%
    09:00 +4°C° 0.1 mm 6 mps 676 mmHg 79%
    10:00 +5°C° 0.1 mm 6 mps 677 mmHg 75%
    11:00 +7°C° 0 mm 6 mps 677 mmHg 70%
    12:00 +7°C° 0 mm 6 mps 677 mmHg 66%
    13:00 +8°C° 0 mm 6 mps 677 mmHg 62%
    14:00 +7°C° 0.1 mm 5 mps 677 mmHg 67%
    15:00 +7°C° 0.1 mm 5 mps 677 mmHg 71%
    16:00 +7°C° 0.1 mm 4 mps 676 mmHg 76%
    17:00 +6°C° 0.1 mm 4 mps 677 mmHg 81%
    18:00 +5°C° 0.1 mm 3 mps 677 mmHg 86%
    19:00 +6°C° 0.1 mm 2 mps 677 mmHg 91%
    20:00 +6°C° 0.4 mm 2 mps 677 mmHg 92%
    21:00 +6°C° 0.4 mm 2 mps 677 mmHg 93%
    22:00 +5°C° 0.4 mm 2 mps 677 mmHg 94%
    23:00 +6°C° 1.5 mm 2 mps 677 mmHg 95%
    Show more